{"data":{"norad_id":63765,"epoch":"2026-09-20T09:31:05.683584Z","epoch_age_seconds":158769,"freshness":"FRESH","line1":"1 63765U 25089Q   26263.39659356  .00010389  00000+0  38647-3 0  9997","line2":"2 63765  43.0034  25.7873 0001234 234.4518 125.6218 15.27585248 78728","mean_motion":15.27585248,"eccentricity":0.0001234,"inclination_deg":43.0034,"raan_deg":25.7873,"arg_perigee_deg":234.4518,"mean_anomaly_deg":125.6218,"bstar":0.00038647,"rev_number":7872,"period_min":94.266424861416,"perigee_km":482.18671325958,"apogee_km":483.88005010978,"semimajor_km":6861.1703816847,"source":"CELESTRAK","updated_at":"2026-09-21T09:00:35.095565Z"}}